Theta_e
336 346 355 355 355 355 355 354 354 353 353 353 353 352 353 353 353 353 353 354 354 352 352 350 349 348 347 347 348 349 350 349 349 350 352 352 350 345 349 345 344 347 352
341 347 357 355 355 355 355 353 353 353 353 352 352 352 351 351 351 352 352 353 352 352 351 349 347 346 344 344 343 345 344 345 345 343 340 342 351 348 351 345 344 344 349
344 348 352 356 356 355 354 354 353 352 352 351 351 351 350 350 349 350 350 351 351 351 350 349 346 345 344 343 343 344 345 346 347 343 334 333 346 352 348 347 346 344 344
346 347 349 356 356 355 354 353 353 352 352 351 350 349 349 349 349 349 349 350 350 349 349 348 345 343 343 342 342 343 344 345 347 342 324 329 347 350 350 349 348 347 345
345 347 349 356 356 355 354 354 353 352 352 351 350 350 350 350 350 351 351 350 349 347 347 346 346 344 344 344 346 347 347 345 346 336 327 327 346 349 352 350 349 348 346
344 345 352 357 356 355 354 354 354 352 352 352 351 351 351 351 351 351 351 351 349 345 345 346 349 349 347 346 349 349 348 348 345 332 332 329 338 350 354 352 351 350 348
342 343 349 357 355 355 354 354 353 352 352 352 351 351 351 351 352 352 352 352 351 348 348 349 350 351 349 348 347 346 347 348 339 334 332 328 334 347 354 354 352 352 351
341 342 345 355 356 357 356 355 355 355 353 351 351 352 351 351 351 352 353 354 352 351 349 349 350 350 345 346 344 344 343 338 327 327 326 326 338 347 350 354 355 351 352
340 341 344 347 351 355 357 357 356 355 354 354 354 353 351 350 353 353 352 353 352 352 350 351 348 346 341 342 340 341 335 332 323 324 323 331 340 348 351 352 352 350 350
338 341 341 343 347 345 349 355 356 355 354 354 353 352 352 349 347 349 352 350 351 351 350 344 340 337 335 334 335 334 331 326 320 320 322 328 342 349 349 351 349 350 351
340 340 342 342 342 344 346 349 355 354 353 354 352 350 344 338 337 340 343 347 351 351 343 338 334 333 329 329 330 329 324 318 317 319 320 332 336 340 345 352 352 350 351
336 338 339 341 343 343 347 346 347 348 348 347 340 337 333 333 337 339 343 348 348 344 336 333 331 328 322 319 318 321 317 317 317 318 319 330 333 336 342 349 351 352 351
336 337 339 339 340 342 343 343 345 346 344 339 336 334 333 335 335 328 327 327 330 329 322 322 320 319 318 318 318 317 317 317 317 318 318 327 329 333 337 343 349 349 348
336 339 339 339 338 339 338 338 343 343 341 336 333 332 332 331 334 329 325 324 324 321 322 322 320 320 318 318 317 316 316 317 316 317 317 325 326 328 333 337 345 348 347
335 336 336 339 337 339 339 339 339 341 340 336 333 333 332 330 331 330 324 322 323 322 321 320 319 319 318 317 317 316 316 316 316 317 316 323 325 325 328 331 337 346 345
332 333 336 338 337 337 337 339 339 340 340 335 333 333 332 330 329 331 324 323 324 322 321 319 320 319 317 316 317 316 317 316 315 316 315 316 322 324 325 328 332 337 344
332 334 334 334 336 334 335 332 339 340 340 336 334 333 333 332 330 331 327 322 322 321 320 319 318 317 317 316 315 315 316 315 315 315 314 314 316 320 323 325 329 333 339
330 328 330 336 337 335 330 331 334 338 338 336 335 334 334 334 334 331 326 323 323 322 320 319 317 316 315 314 313 314 314 314 314 313 314 314 315 316 318 324 327 331 335
328 328 326 327 327 328 330 330 333 338 336 335 334 334 334 334 334 329 327 325 324 322 320 319 318 315 314 313 312 314 314 313 313 312 312 315 317 317 316 320 329 334 336
326 327 331 333 334 334 333 333 332 331 331 333 332 331 330 329 330 328 325 324 323 322 320 318 315 314 313 312 311 311 311 312 311 311 312 315 316 317 320 322 323 327 340
329 328 326 329 326 325 332 329 329 328 329 330 330 331 330 329 328 327 325 323 322 319 317 317 314 311 310 309 308 308 308 310 310 310 312 316 315 315 316 318 320 322 324
326 327 325 323 323 322 331 332 331 331 330 329 325 321 322 323 326 327 324 322 320 318 316 314 312 310 312 310 309 303 302 306 307 310 311 315 315 314 312 314 315 318 322
321 323 323 323 324 326 323 329 330 330 327 321 321 320 321 321 319 318 319 319 316 315 314 313 313 310 310 312 310 308 302 299 303 307 311 314 314 312 311 311 314 314 319
323 325 323 326 326 328 323 324 325 322 317 318 318 319 318 318 318 318 316 315 315 316 315 315 315 313 312 308 308 309 309 307 302 301 306 310 313 313 310 310 311 314 317
324 323 324 324 325 324 326 323 321 317 317 317 316 314 314 315 316 315 315 314 313 313 312 312 312 311 310 309 309 307 306 308 308 304 301 305 309 310 310 309 310 314 319
321 321 322 322 319 320 319 318 316 314 313 312 311 310 311 312 313 311 311 311 310 310 311 311 311 310 310 310 310 309 306 304 304 304 303 304 303 305 306 312 313 315 316
Wind_Speed
4 7 14 13 12 10 10 9 10 10 9 9 8 8 8 8 8 8 8 7 7 8 8 9 9 10 11 11 11 11 10 9 9 9 7 5 1 1 2 4 4 3 6
11 8 15 14 13 11 10 9 9 8 8 7 7 7 6 6 6 6 5 5 6 7 7 8 9 10 11 11 11 10 10 10 9 10 10 8 5 3 7 5 3 2 4
12 9 11 14 13 11 9 8 7 6 5 5 5 5 4 3 3 3 2 2 3 5 6 7 8 9 10 11 11 11 11 10 10 11 11 6 2 6 5 6 5 3 3
12 7 7 14 13 11 10 8 7 6 5 4 4 3 2 1 2 2 2 3 3 4 5 5 7 8 9 10 11 10 10 11 11 12 7 7 4 8 8 8 8 6 5
9 6 7 14 13 12 11 10 9 7 6 5 4 2 1 1 3 3 4 4 4 4 5 6 7 7 9 10 10 10 10 11 11 8 7 6 5 6 11 9 8 6 5
8 7 11 15 14 13 13 11 11 9 8 7 6 5 5 5 4 5 5 6 6 5 6 7 7 7 8 10 11 13 12 11 9 6 6 8 4 4 11 11 10 8 6
9 7 8 16 14 13 12 12 10 8 7 7 6 5 4 4 5 6 7 7 6 4 5 7 8 8 8 9 11 12 14 14 9 6 6 6 5 5 6 10 11 11 8
9 5 4 13 13 12 12 12 11 10 9 7 6 5 4 5 6 7 8 8 7 6 8 10 8 7 8 9 11 12 13 13 10 7 7 5 6 6 8 9 10 10 11
5 5 5 5 10 15 13 12 10 8 7 7 6 5 4 5 6 6 7 7 7 6 8 9 7 8 10 11 12 11 13 12 7 7 9 6 9 5 5 9 9 10 10
2 4 5 5 7 7 7 13 10 9 8 7 5 3 4 5 6 7 7 6 6 4 5 8 7 9 10 11 11 12 13 13 6 7 7 7 14 10 8 10 10 10 10
4 3 3 4 6 6 4 5 8 11 10 8 5 1 2 2 4 7 8 10 6 2 8 7 6 9 9 9 10 10 10 4 6 5 5 16 18 16 14 12 11 10 12
8 7 7 10 12 11 10 4 4 5 2 1 2 1 2 4 4 6 6 10 6 8 8 7 7 7 7 3 4 8 4 5 4 5 3 15 18 18 17 14 12 13 12
7 9 2 6 7 3 7 8 5 2 1 1 1 1 3 3 2 2 2 1 3 6 3 3 2 2 3 2 2 2 3 4 3 4 6 12 14 18 19 18 15 14 13
5 6 4 7 4 8 5 7 7 4 2 3 3 4 2 2 2 2 2 1 2 3 4 2 1 1 3 2 3 3 4 3 3 3 5 14 16 17 17 19 17 15 14
4 2 3 6 5 6 2 7 6 7 5 4 3 3 3 3 3 3 3 2 2 2 2 2 2 1 1 2 3 4 4 4 5 3 3 15 17 18 19 18 18 17 17
2 3 5 9 9 11 6 10 6 7 8 3 4 4 5 3 4 3 3 3 2 2 2 2 2 2 1 2 4 5 7 5 4 6 6 7 17 18 19 19 18 18 18
3 2 5 9 2 6 6 3 8 9 8 6 4 4 5 4 4 4 4 4 3 2 3 0 1 0 0 1 2 3 4 7 7 7 7 6 9 16 19 20 19 17 19
3 5 7 2 4 5 5 4 7 11 9 5 3 3 5 5 5 4 4 4 3 3 1 0 2 3 3 2 2 4 5 6 8 8 7 7 7 8 12 17 18 19 20
7 5 6 5 5 7 7 8 11 10 7 4 3 2 4 4 4 3 3 3 3 2 1 2 2 3 2 1 3 3 4 6 7 7 8 7 8 8 6 12 15 20 21
6 7 6 6 6 5 4 6 4 3 4 3 3 4 5 4 6 4 3 3 3 3 2 2 3 1 1 3 5 6 6 6 6 5 6 4 6 7 6 6 5 6 12
5 10 8 8 7 6 3 4 4 4 3 2 3 5 6 5 4 4 4 4 3 2 3 4 2 1 1 0 1 2 4 7 6 5 4 1 5 6 8 9 6 6 6
8 7 7 6 7 4 3 3 3 3 1 2 3 8 9 8 6 4 3 4 3 1 4 3 2 1 2 3 2 1 3 3 3 4 4 2 4 4 6 8 9 8 7
4 3 6 6 6 4 3 2 2 1 2 4 4 3 5 7 6 5 3 1 1 1 1 1 2 3 3 2 4 2 2 3 2 2 2 2 2 3 3 5 7 6 6
8 8 8 7 6 4 5 2 6 3 3 2 1 3 4 5 5 5 5 5 5 3 4 3 3 3 2 4 2 4 5 3 2 4 2 3 3 3 4 4 5 5 4
8 7 7 8 7 4 9 10 6 5 3 3 3 5 5 5 6 8 7 6 5 4 4 4 4 4 3 4 4 2 3 3 6 6 6 3 2 3 2 3 5 5 3
6 7 7 11 15 13 12 11 9 8 5 4 5 5 4 3 3 5 6 5 5 4 5 4 4 5 4 5 5 5 5 4 3 4 3 1 1 3 3 4 3 5 4
Wind_Direction
195 166 166 165 163 160 151 137 126 121 119 117 112 101 94 89 79 71 62 57 57 57 55 55 53 51 49 49 45 36 35 32 22 11 360 343 230 135 146 113 102 118 118
142 163 168 168 168 169 158 145 137 134 129 118 106 95 88 93 97 99 97 79 56 44 44 45 45 49 47 43 41 34 25 19 15 10 358 341 273 198 144 122 114 135 141
142 158 167 172 173 169 160 152 146 137 126 117 107 107 107 104 105 92 88 88 87 78 53 38 37 36 37 37 34 27 17 5 359 2 3 350 267 206 180 149 142 139 153
143 149 160 173 174 171 166 159 160 158 156 143 134 127 108 46 15 354 350 7 18 26 34 35 30 27 22 21 23 18 11 357 355 358 353 357 345 200 189 175 158 164 160
142 146 166 177 178 177 175 173 178 175 175 174 169 168 173 296 305 313 314 318 338 0 5 15 21 15 11 10 8 5 2 350 346 351 343 343 342 205 185 185 175 172 175
145 157 180 181 184 185 184 184 190 188 188 191 194 201 213 229 254 278 292 310 321 341 356 2 11 14 21 16 10 11 5 354 359 345 336 330 339 324 190 188 184 181 189
170 179 184 187 188 192 193 197 198 197 204 214 217 232 246 276 288 290 291 294 298 338 7 6 14 23 30 32 32 27 16 13 13 0 339 328 310 285 245 201 195 184 194
170 175 198 194 193 198 202 204 201 197 203 219 228 241 277 296 293 292 292 293 310 346 2 1 6 29 33 43 41 29 27 23 5 358 336 338 305 278 252 224 210 199 190
151 161 198 204 205 206 208 208 206 207 214 216 228 242 254 273 292 297 296 300 305 344 355 359 30 47 38 37 35 32 28 30 17 351 350 345 325 286 252 239 227 218 208
131 195 222 230 209 201 196 212 210 210 217 227 239 269 288 291 305 294 281 280 296 336 345 73 55 46 46 35 36 31 26 24 18 6 349 344 347 310 267 269 239 233 215
181 218 276 294 296 291 235 214 217 223 227 224 225 216 337 303 296 290 275 265 261 282 114 81 58 52 45 41 40 42 34 17 9 4 349 340 340 334 293 259 243 236 229
29 25 28 356 345 333 316 291 226 230 220 132 123 165 287 286 279 298 281 264 239 141 116 88 59 58 50 51 23 18 13 6 4 347 345 340 332 327 321 276 230 226 223
89 75 319 150 208 340 330 320 306 322 9 76 160 298 280 262 275 340 322 48 125 137 109 112 94 83 97 83 44 31 2 355 338 329 328 335 329 323 320 308 261 237 221
127 194 157 205 188 105 357 300 297 303 264 200 212 233 236 256 279 271 258 154 186 149 156 156 111 124 95 62 31 3 350 338 323 316 323 328 326 320 313 308 288 245 223
78 281 32 40 64 85 276 256 263 279 266 246 199 240 233 231 245 228 234 218 192 173 180 172 196 132 85 9 358 346 330 326 318 309 301 312 316 313 304 301 301 259 238
190 268 95 119 147 158 234 267 311 274 268 234 235 227 225 212 228 242 257 246 235 219 198 209 222 178 120 7 346 342 330 334 307 297 298 299 301 298 294 292 289 286 249
241 221 200 205 182 98 216 259 308 301 262 255 261 211 223 212 225 239 242 240 241 228 231 165 281 354 36 313 298 301 312 313 306 303 297 292 293 290 284 280 278 277 267
288 139 200 310 66 194 242 357 305 292 278 256 242 245 231 222 222 227 243 238 227 227 220 185 245 258 226 194 321 316 313 305 301 306 306 306 294 283 280 276 277 274 262
37 12 49 21 18 347 355 320 301 283 270 272 290 292 352 341 343 318 291 325 322 310 264 251 244 256 274 329 285 293 305 299 302 310 308 309 314 300 273 278 282 268 249
346 26 16 8 360 335 308 270 267 284 261 309 320 352 351 355 341 330 323 325 326 302 305 300 267 236 316 355 324 303 294 279 288 293 309 316 323 5 3 338 342 340 227
333 3 347 341 355 15 345 308 288 302 312 6 3 7 5 357 344 331 308 321 347 307 276 277 304 314 302 68 302 307 283 275 281 274 290 317 339 19 8 2 13 18 30
10 11 353 324 324 311 298 323 297 289 352 43 37 31 23 9 344 320 300 291 268 249 273 248 165 255 283 195 249 210 299 320 324 301 288 302 334 348 14 7 4 5 31
17 330 334 320 317 328 349 292 340 335 47 20 17 356 359 353 355 5 1 35 70 114 289 247 225 231 249 270 206 219 279 246 303 294 284 296 335 330 8 2 341 347 10
328 326 327 336 333 7 332 28 44 23 28 17 11 344 324 358 2 9 7 4 359 353 323 300 307 278 260 273 313 233 252 257 301 288 282 284 298 340 354 344 335 285 330
332 335 329 339 4 21 31 38 52 66 43 9 7 4 359 1 16 14 8 5 2 354 328 315 321 288 244 256 245 253 235 259 250 262 282 265 333 349 318 331 311 309 338
357 351 11 40 37 35 40 41 49 50 37 29 10 7 354 344 357 6 359 2 356 344 329 317 307 282 270 254 262 264 254 257 293 280 274 306 322 300 322 333 360 321 323